« Back
NWS Peachtree City, Ga » Text Product » CSG Terminal Aerodrome Forecast


Printer-friendly Version
Current Version              Previous Versions:   1  2  3  4  5  6  7  8  9  

Terminal Aerodrome Forecast

788
FTUS42 KFFC 161100
TAFCSG
TAF
KCSG 161128Z 1612/1712 VRB03KT 6SM BR SCT008
     FM161400 24005KT P6SM VCSH BKN015
     FM161700 27007KT P6SM VCSH SCT025 BKN040
      TEMPO 1617/1621 5SM -TSRA BR BKN025CB
     FM162100 28009KT P6SM SCT050 BKN100
     FM170200 30005KT P6SM SCT120 BKN250=

USA.gov is the U.S. government's official web portal to all federal, state and local government web resources and services.